Content
SEND FEEDBACK

Daily
Averages
Monthly
Summary
United States of America

CHICAGO, ILLINOIS


Home > North America > United States > Illinois
Elevation: 205 meters     Latitude: 41 59N     Longitude: 087 54W

WEATHER
 
SELECT A DAY
Number of Records: 193,115;   Date Range: 7/8/95 - 4/23/14
 
SHARE

PRINT THIS DATA

[ ← Previous Day ]
WEATHER ALMANAC - 28 APRIL, 2013
[ Next Day → ]
[ °F ]   °C
Weather ElementAverageHighLow
Temperature13.7 °C18.3 °C (2:52 pm)10.6 °C (11:52 pm)
Dewpoint9 °C11 °C (12:59 pm)5.6 °C (1:52 am)
Humidity74.1 %89 % (11:52 pm)61 % (2:52 pm)
Barometer1012.9 hPa1015.6 hPa (1:52 am)1010.8 hPa (5:52 pm)
Wind Speed6 km/h13 km/h (3:52 pm)
Weather ElementAverage
Visibility13.7 km
Wind DirectionENE (71.2 °)

Weather ElementTotal
Precipitation---
Heating Degree Days3.9 (Base 18.3)
Growing Degree Days4.4 (Base 10)
Averaged from 26 records on 28 April, 2013
WEATHER CONDITIONS BREAKOUT
WIND DIRECTION BREAKOUT
WEATHER BY HOUR - 28 APRIL, 2013
[ °F ]   °C
Local TimeTemperatureDewpointHumidityBarometerVisibilityWind DirectionWind SpeedGust SpeedPrecipitationEventsConditions
1:52 AM11.7 °C5.6 °C66 %1015.6 hPa16.1 kmCalm
2:52 AM11.7 °C5.6 °C66 %1014.9 hPa16.1 kmCalm
3:52 AM12.2 °C7.2 °C72 %1014.6 hPa12.9 kmCalm
4:52 AM11.1 °C8.3 °C83 %1013.9 hPa12.9 kmCalmRainLight Rain
5:52 AM11.7 °C9.4 °C86 %1013.9 hPa9.7 kmCalmMist
6:52 AM12.2 °C9.4 °C83 %1013.9 hPa6.4 kmCalmHaze
7:00 AM12 °C10 °C88 %1013.5 hPa6.4 kmCalmOvercast
7:52 AM12.2 °C9.4 °C83 %1013.9 hPa9.7 kmEast (80°)7.4 km/hHaze
8:52 AM11.7 °C6.7 °C71 %1013.9 hPa14.5 kmNNE (30°)11.1 km/hOvercast
9:52 AM12.2 °C6.7 °C69 %1013.9 hPa16.1 kmENE (60°)9.3 km/hOvercast
10:01 AM13 °C7 °C67 %1013.5 hPa16.1 kmNE (40°)11.1 km/hOvercast
10:52 AM13.3 °C7.8 °C69 %1013.2 hPa16.1 kmNE (50°)9.3 km/hOvercast
11:52 AM14.4 °C9.4 °C72 %1013.2 hPa14.5 kmNE (40°)7.4 km/hOvercast
12:52 PM16.1 °C10.6 °C70 %1012.5 hPa14.5 kmNorth (350°)11.1 km/hOvercast
12:59 PM17 °C11 °C68 %1012.2 hPa14.5 kmNorth (350°)7.4 km/hMostly Cloudy
1:52 PM17.8 °C10.6 °C63 %1011.5 hPa16.1 kmVariable9.3 km/hScattered Clouds
2:52 PM18.3 °C10.6 °C61 %1011.5 hPa16.1 kmNE (50°)7.4 km/hScattered Clouds
3:52 PM16.7 °C10 °C65 %1011.2 hPa16.1 kmEast (80°)13 km/hMostly Cloudy
4:52 PM16.7 °C10.6 °C67 %1011.2 hPa16.1 kmVariable7.4 km/hClear
5:52 PM16.7 °C10.6 °C67 %1010.8 hPa16.1 kmNE (50°)9.3 km/hClear
6:52 PM15 °C10 °C72 %1011.2 hPa16.1 kmESE (120°)11.1 km/hScattered Clouds
7:52 PM13.9 °C10 °C77 %1011.2 hPa16.1 kmESE (120°)5.6 km/h
8:52 PM13.3 °C10 °C80 %1011.5 hPa16.1 kmESE (120°)7.4 km/h
9:52 PM12.2 °C10 °C86 %1011.9 hPa12.9 kmSE (130°)5.6 km/h
10:52 PM11.1 °C8.9 °C86 %1011.9 hPa9.7 kmSouth (180°)5.6 km/hMist
11:52 PM10.6 °C8.9 °C89 %1011.5 hPa8 kmCalmMist
Hourly data recorded from KPWK, located 0.79 kilometers away from Chicago, Illinois







STORIES FROM OUR PARTNERS